GW4438 Weather Reports


time (UTC)temp
C
wind
direction
speed
KPH
gust
KPH
rain 1hr
cm
rain 24hr
cm
rain mn
cm
humidity
%
barometer
mb
20260508114530 22 293 1.6 20.9 0.00 0.00 0.00 44 1016.0
20260508113108 22 39 6.4 12.9 0.00 0.00 0.00 43 1015.9
20260508111616 22 100 4.8 14.5 0.00 0.00 0.00 45 1016.2
20260508110127 21 74 3.2 9.7 0.00 0.00 0.00 45 1016.6
20260508104508 21 20 1.6 12.9 0.00 0.00 0.00 46 1016.8
20260508103043 22 93 1.6 16.1 0.00 0.00 0.00 46 1017.0
20260508101528 21 310 1.6 12.9 0.00 0.00 0.00 47 1016.8
20260508100103 21 52 4.8 12.9 0.00 0.00 0.00 48 1017.1
20260508094613 21 44 3.2 12.9 0.00 0.00 0.00 47 1017.6
20260508093124 21 95 3.2 19.3 0.00 0.00 0.00 48 1017.6
20260508091621 21 264 3.2 16.1 0.00 0.00 0.00 50 1017.9
20260508090028 21 101 3.2 16.1 0.00 0.00 0.00 51 1017.8
20260508084550 20 53 6.4 17.7 0.00 0.00 0.00 51 1017.9
20260508083006 20 34 4.8 14.5 0.00 0.00 0.00 49 1018.1
20260508081700 21 84 1.6 9.7 0.00 0.00 0.00 47 1017.9
20260508074606 20 36 3.2 16.1 0.00 0.00 0.00 46 1018.1
20260508073035 20 345 3.2 14.5 0.00 0.00 0.00 46 1018.4
20260508070124 20 132 3.2 9.7 0.00 0.00 0.00 45 1019.1
20260508064632 19 30 0.0 14.5 0.00 0.00 0.00 44 1018.9
20260508061517 20 75 1.6 8.0 0.00 0.00 0.00 39 1018.4
20260508060131 20 72 3.2 9.7 0.00 0.00 0.00 37 1018.0
20260508053026 19 93 0.0 4.8 0.00 0.00 0.00 42 1017.1
20260508051551 18 299 0.0 3.2 0.00 0.00 0.00 45 1016.7
20260508044613 17 299 0.0 3.2 0.00 0.00 0.00 54 1016.7
20260508043125 17 270 0.0 1.6 0.00 0.00 0.00 57 1016.5
20260508041514 17 270 0.0 1.6 0.00 0.00 0.00 57 1015.9
20260508040026 17 270 0.0 3.2 0.00 0.00 0.00 56 1015.5
20260508034602 17 271 0.0 1.6 0.00 0.00 0.00 54 1015.4
20260508033015 17 271 0.0 3.2 0.00 0.00 0.00 54 1015.3
20260508031523 17 271 0.0 4.8 0.00 0.00 0.00 56 1015.4
20260508030129 17 314 0.0 3.2 0.00 0.00 0.00 59 1015.4
20260508024613 17 315 0.0 3.2 0.00 0.00 0.00 59 1015.3
20260508023125 17 113 0.0 1.6 0.00 0.00 0.00 60 1015.6
20260508021511 17 113 0.0 1.6 0.00 0.00 0.00 59 1015.5
20260508020049 17 113 0.0 4.8 0.00 0.00 0.00 59 1015.5
20260508014557 17 103 0.0 3.2 0.00 0.00 0.00 57 1015.6
20260508013107 17 257 0.0 1.6 0.00 0.00 0.00 58 1015.9
20260508011616 17 257 0.0 1.6 0.00 0.00 0.00 58 1016.1
20260508010126 17 257 0.0 3.2 0.00 0.00 0.00 57 1016.3
20260508004510 17 257 0.0 0.0 0.00 0.00 0.00 56 1016.4
20260508003051 17 257 1.6 3.2 0.00 0.00 0.00 54 1016.3
20260508001600 17 257 0.0 1.6 0.00 0.00 0.00 55 1016.5
20260508000112 17 257 0.0 3.2 0.00 0.00 0.00 54 1016.5
20260507234625 17 257 0.0 1.6 0.00 0.00 0.00 53 1016.7
20260507233012 17 257 0.0 1.6 0.00 0.00 0.00 52 1017.1
20260507231508 17 257 0.0 3.2 0.00 0.00 0.00 51 1017.0
20260507230016 17 83 0.0 1.6 0.00 0.00 0.00 53 1017.1
20260507224604 18 307 0.0 0.0 0.00 0.00 0.00 53 1017.3
20260507223104 18 307 0.0 0.0 0.00 0.00 0.00 52 1017.4
20260507221614 18 307 0.0 1.6 0.00 0.00 0.00 54 1017.4
20260507220050 18 307 3.2 11.3 0.00 0.00 0.00 53 1017.5
20260507214613 18 78 0.0 4.8 0.00 0.00 0.00 51 1017.8
20260507213116 18 31 0.0 4.8 0.00 0.00 0.00 51 1017.8
20260507211630 19 93 1.6 8.0 0.00 0.00 0.00 50 1017.8
20260507210012 19 20 0.0 8.0 0.00 0.00 0.00 45 1017.9
20260507204557 19 72 0.0 11.3 0.00 0.00 0.00 43 1017.8
20260507203052 19 49 0.0 6.4 0.00 0.00 0.00 47 1017.9
20260507201601 19 70 0.0 0.0 0.00 0.00 0.00 50 1017.8
20260507200108 19 69 0.0 1.6 0.00 0.00 0.00 49 1017.8
20260507194620 20 110 0.0 4.8 0.00 0.00 0.00 48 1017.9
20260507193129 20 119 1.6 4.8 0.00 0.00 0.00 48 1017.6
20260507191509 20 262 0.0 6.4 0.00 0.00 0.00 45 1017.6
20260507190046 20 292 1.6 19.3 0.00 0.00 0.00 36 1017.4
20260507184554 20 329 4.8 11.3 0.00 0.00 0.00 38 1017.5
20260507183102 20 38 1.6 9.7 0.00 0.00 0.00 39 1017.4
20260507181611 20 77 0.0 6.4 0.00 0.00 0.00 42 1017.4
20260507180119 20 248 0.0 6.4 0.00 0.00 0.00 42 1017.3
20260507174502 20 27 1.6 9.7 0.00 0.00 0.00 43 1017.2
20260507173013 20 40 1.6 6.4 0.00 0.00 0.00 43 1017.4
20260507171549 21 117 3.2 9.7 0.00 0.00 0.00 38 1017.2
20260507170054 21 33 3.2 11.3 0.00 0.00 0.00 34 1016.8
20260507164603 21 43 1.6 9.7 0.00 0.00 0.00 35 1016.5
20260507163114 21 31 1.6 9.7 0.00 0.00 0.00 36 1016.6
20260507161621 22 34 3.2 8.0 0.00 0.00 0.00 37 1016.8
20260507160002 22 120 1.6 11.3 0.00 0.00 0.00 35 1016.6
20260507154510 22 321 6.4 12.9 0.00 0.00 0.00 35 1016.9
20260507153020 23 243 3.2 11.3 0.00 0.00 0.00 34 1017.1
20260507151555 23 56 6.4 16.1 0.00 0.00 0.00 34 1017.3
20260507150003 23 359 3.2 12.9 0.00 0.00 0.00 35 1017.3
20260507144513 23 37 4.8 20.9 0.00 0.00 0.00 36 1017.2
20260507143152 23 32 4.8 24.1 0.00 0.00 0.00 35 1017.2
20260507141626 23 72 4.8 27.4 0.00 0.00 0.00 33 1017.1
20260507140007 23 37 3.2 20.9 0.00 0.00 0.00 35 1016.7
20260507134520 24 24 9.7 27.4 0.00 0.00 0.00 30 1016.8
20260507133052 24 23 9.7 25.7 0.00 0.00 0.00 30 1016.6
20260507131621 24 4 6.4 19.3 0.00 0.00 0.00 31 1016.5
20260507130112 24 121 3.2 20.9 0.00 0.00 0.00 34 1016.8
20260507124622 24 342 3.2 16.1 0.00 0.00 0.00 34 1017.0
20260507123059 24 31 1.6 14.5 0.00 0.00 0.00 36 1017.2
20260507121608 24 22 3.2 14.5 0.00 0.00 0.00 35 1017.3
20260507120114 25 320 1.6 22.5 0.00 0.00 0.00 37 1017.4